Hourly Data Report for March 31, 2021

NANAIMO A
BRITISH COLUMBIA
Current Station Operator: NAVCAN

49°03'16.000" N
123°52'12.000" W
28.00 m
1025365
YCD

Download Data

Hourly Data (March 2021)
Hourly Data Report for March 31, 2021
TIME
LST
Temp Definition
°C
Dew Point Definition
°C
Rel Hum Definition
%
Precip. Amount Definition
mm

Wind Dir Definition
10's deg

Wind Spd Definition
km/h
Visibility Definition
km
Stn Press Definition
kPa
Hmdx Definition


Wind Chill Definition


Weather Definition


00:00 1.5 0.2 91 LegendMM 22 2 LegendMM 102.92     LegendNANA
01:00 1.1 0.4 95 LegendMM 28 2 LegendMM 102.91     LegendNANA
02:00 0.3 -0.4 95 LegendMM 27 2 LegendMM 102.89     LegendNANA
03:00 -0.4 -1.1 96 LegendMM 27 3 LegendMM 102.85   -1 LegendNANA
04:00 -0.7 -1.3 95 LegendMM 25 4 LegendMM 102.79   -2 LegendNANA
05:00 -1.1 -1.5 97 LegendMM 22 2 LegendMM 102.75   -2 LegendNANA
06:00 -1.2 -1.7 96 LegendMM 20 4 LegendMM 102.72   -3 LegendNANA
07:00 0.0 -0.6 95 LegendMM 16 5 LegendMM 102.71   -2 LegendNANA
08:00 4.3 1.8 83 LegendMM 10 3 LegendMM 102.66     LegendNANA
09:00 7.0 2.9 75 LegendMM 36 2 LegendMM 102.60     LegendNANA
10:00 8.8 1.8 61 LegendMM 10 12 LegendMM 102.52     LegendNANA
11:00 9.6 1.4 57 LegendMM 11 8 LegendMM 102.44     LegendNANA
12:00 10.4 1.4 53 LegendMM 7 11 LegendMM 102.32     LegendNANA
13:00 11.6 2.0 52 LegendMM 1 13 LegendMM 102.23     LegendNANA
14:00 11.7 1.4 49 LegendMM 5 5 LegendMM 102.09     LegendNANA
15:00 12.0 0.1 44 LegendMM 7 8 LegendMM 101.97     LegendNANA
16:00 11.8 0.2 45 LegendMM 6 8 LegendMM 101.84     LegendNANA
17:00 11.8 0.9 47 LegendMM 8 5 LegendMM 101.72     LegendNANA
18:00 11.0 1.2 51 LegendMM 5 6 LegendMM 101.58     LegendNANA
19:00 8.8 1.8 62 LegendMM 4 2 LegendMM 101.47     LegendNANA
20:00 7.5 2.6 71 LegendMM 23 5 LegendMM 101.42     LegendNANA
21:00 6.6 3.3 79 LegendMM 26 5 LegendMM 101.35     LegendNANA
22:00 5.1 2.8 85 LegendMM 21 3 LegendMM 101.28     LegendNANA
23:00 4.2 2.4 88 LegendMM 17 1 LegendMM 101.20     LegendNANA

Notes on Data Quality.

Legend

  • E = Estimated
  • M = Missing
  • NA = Not Available*
  • [empty] = Indicates an unobserved value
Date modified: